Kezdőlap
METAR-TAF:

METAR-TAF

Repülőterek :

St. Paul Downtown Airport (Holman Field)

Saint Paul, Minnesota, Amerikai Egyesült Államok

földrajzi szélesség: 44-55-49N, földrajzi hosszúság: 093-02-53W, magasság: 214 m

Jelenlegi meteorológiai megfigyelések

A jelentés 16 perccel ezelõtt készült, 01:53 UTC
Északi szél 10 kt
Hőmérséklet 11°C
Páratartalom 82%
Légköri nyomás 1011 hPa
Látótávolság: 16.1 km
Borult 1100 lábon
enyhe esõ

METAR: KSTP 260153Z 01010KT 10SM -RA OVC011 11/08 A2986 RMK AO2 RAB31 SLP112 P0001 T01060083

Idő: 21:09 (02:09 UTC)


TAF: hiányzik

Meteorológiai megfigyelések és előrejelzések több, mint 4000 repülőtéren (METAR és TAF jelentéseket).

A térképen piros és sárga pontok jelzik az elérhető meteorológiai állomásokat.

Mozgassa az egeret a pont fölött, hogy megjelenjen az állomás neve.

Azután kattintson az időjárási megfigyelések és előrejelzések megtekintéséhez.

A térkép megváltoztatása: kattintson a fekete keresztel jelölt zöld gombra ráközelítéshez, a vonallal jelölt zöld gombra távolításhoz, vagy a zöld nyilakra a szomszédos térképek eléréséhez.


METAR-TAF: